Time,TemperatureF,DewpointF,PressureIn,WindDirection,WindDirectionDegrees,WindSpeedMPH,WindSpeedGustMPH,Humidity,HourlyPrecipIn,Conditions,Clouds,dailyrainin,SoftwareType,DateUTC
2013-02-11 00:08:00,40.6,37.0,30.32,NNW,330,0.0,2.0,87,0.00,,,0.00,weatherlink.com 1.10,2013-02-11 08:08:00,
2013-02-11 00:23:00,40.7,37.0,30.32,North,8,0.0,2.0,87,0.00,,,0.00,weatherlink.com 1.10,2013-02-11 08:23:00,
2013-02-11 00:38:00,40.7,37.0,30.32,North,356,1.0,2.0,87,0.00,,,0.00,weatherlink.com 1.10,2013-02-11 08:38:00,
2013-02-11 00:53:00,40.6,37.0,30.32,North,352,1.0,2.0,87,0.00,,,0.00,weatherlink.com 1.10,2013-02-11 08:53:00,
2013-02-11 01:08:00,40.6,37.0,30.32,NNE,25,0.0,2.0,86,0.00,,,0.00,weatherlink.com 1.10,2013-02-11 09:08:00,
2013-02-11 01:23:00,40.7,37.0,30.33,NNW,333,0.0,4.0,85,0.00,,,0.00,weatherlink.com 1.10,2013-02-11 09:23:00,
2013-02-11 01:38:00,40.8,36.0,30.33,NW,315,2.0,3.0,84,0.00,,,0.00,weatherlink.com 1.10,2013-02-11 09:38:00,
2013-02-11 01:53:00,41.0,37.0,30.33,NNW,330,0.0,5.0,84,0.00,,,0.00,weatherlink.com 1.10,2013-02-11 09:53:00,
2013-02-11 02:08:00,41.1,36.0,30.33,NW,321,1.0,6.0,83,0.00,,,0.00,weatherlink.com 1.10,2013-02-11 10:08:00,
2013-02-11 02:23:00,41.3,36.0,30.33,NNW,332,2.0,5.0,82,0.00,,,0.00,weatherlink.com 1.10,2013-02-11 10:23:00,
2013-02-11 02:38:00,41.3,37.0,30.33,West,270,6.0,7.0,83,0.00,,,0.00,weatherlink.com 1.10,2013-02-11 10:38:00,
2013-02-11 02:53:00,40.9,37.0,30.33,West,273,5.0,6.0,85,0.00,,,0.00,weatherlink.com 1.10,2013-02-11 10:53:00,
2013-02-11 03:08:00,40.7,37.0,30.33,WNW,288,2.0,2.0,85,0.00,,,0.00,weatherlink.com 1.10,2013-02-11 11:08:00,
2013-02-11 03:23:00,40.6,37.0,30.32,NNE,27,0.0,2.0,85,0.00,,,0.00,weatherlink.com 1.10,2013-02-11 11:23:00,
2013-02-11 03:38:00,40.4,37.0,30.32,NW,314,0.0,2.0,86,0.00,,,0.00,weatherlink.com 1.10,2013-02-11 11:38:00,
2013-02-11 03:54:00,40.4,37.0,30.33,NNW,348,0.0,2.0,86,0.00,,,0.00,weatherlink.com 1.10,2013-02-11 11:54:00,
2013-02-11 04:08:00,40.2,37.0,30.33,West,278,2.0,4.0,87,0.00,,,0.00,weatherlink.com 1.10,2013-02-11 12:08:00,
2013-02-11 04:23:00,40.3,37.0,30.33,NNW,333,0.0,5.0,87,0.00,,,0.00,weatherlink.com 1.10,2013-02-11 12:23:00,
2013-02-11 04:38:00,40.2,37.0,30.33,NNE,20,0.0,2.0,87,0.00,,,0.00,weatherlink.com 1.10,2013-02-11 12:38:00,
2013-02-11 04:53:00,40.1,37.0,30.34,NNW,330,1.0,4.0,88,0.00,,,0.00,weatherlink.com 1.10,2013-02-11 12:53:00,
2013-02-11 05:08:00,40.2,37.0,30.34,NNE,30,0.0,5.0,88,0.00,,,0.00,weatherlink.com 1.10,2013-02-11 13:08:00,
2013-02-11 05:23:00,40.2,37.0,30.34,NNW,342,0.0,2.0,89,0.00,,,0.00,weatherlink.com 1.10,2013-02-11 13:23:00,
2013-02-11 05:38:00,40.1,37.0,30.34,NE,43,0.0,1.0,89,0.00,,,0.00,weatherlink.com 1.10,2013-02-11 13:38:00,
2013-02-11 05:53:00,40.1,37.0,30.34,NNW,348,0.0,1.0,89,0.00,,,0.00,weatherlink.com 1.10,2013-02-11 13:53:00,
2013-02-11 06:08:00,40.0,37.0,30.34,North,360,0.0,1.0,90,0.00,,,0.00,weatherlink.com 1.10,2013-02-11 14:08:00,
2013-02-11 06:24:00,40.0,37.0,30.34,NNE,31,0.0,1.0,90,0.00,,,0.00,weatherlink.com 1.10,2013-02-11 14:24:00,
2013-02-11 06:38:00,39.8,37.0,30.34,NNE,31,0.0,0.0,90,0.00,,,0.00,weatherlink.com 1.10,2013-02-11 14:38:00,
2013-02-11 06:54:00,39.6,37.0,30.34,NNE,22,0.0,0.0,91,0.00,,,0.00,weatherlink.com 1.10,2013-02-11 14:54:00,
2013-02-11 07:08:00,39.3,37.0,30.35,NNE,23,0.0,0.0,92,0.00,,,0.00,weatherlink.com 1.10,2013-02-11 15:08:00,
2013-02-11 07:23:00,39.3,37.0,30.35,NNE,25,0.0,0.0,92,0.00,,,0.00,weatherlink.com 1.10,2013-02-11 15:23:00,
2013-02-11 07:38:00,39.4,37.0,30.35,ENE,74,0.0,1.0,92,0.00,,,0.00,weatherlink.com 1.10,2013-02-11 15:38:00,
2013-02-11 07:54:00,39.8,37.0,30.35,NNE,19,0.0,1.0,91,0.00,,,0.00,weatherlink.com 1.10,2013-02-11 15:54:00,
2013-02-11 08:09:00,39.6,38.0,30.35,NNE,20,0.0,0.0,92,0.00,,,0.00,weatherlink.com 1.10,2013-02-11 16:09:00,
2013-02-11 08:24:00,40.0,38.0,30.35,NNE,20,0.0,0.0,92,0.00,,,0.00,weatherlink.com 1.10,2013-02-11 16:24:00,
2013-02-11 08:39:00,40.3,38.0,30.36,NNE,20,0.0,0.0,92,0.00,,,0.00,weatherlink.com 1.10,2013-02-11 16:39:00,
2013-02-11 08:54:00,40.5,38.0,30.36,NNE,20,0.0,0.0,91,0.00,,,0.00,weatherlink.com 1.10,2013-02-11 16:54:00,
2013-02-11 09:09:00,40.8,38.0,30.36,North,11,0.0,0.0,91,0.00,,,0.00,weatherlink.com 1.10,2013-02-11 17:09:00,
2013-02-11 09:24:00,41.0,38.0,30.36,WNW,295,0.0,1.0,90,0.00,,,0.00,weatherlink.com 1.10,2013-02-11 17:24:00,
2013-02-11 09:39:00,41.5,39.0,30.36,West,281,2.0,2.0,89,0.00,,,0.00,weatherlink.com 1.10,2013-02-11 17:39:00,
2013-02-11 09:54:00,42.1,39.0,30.36,West,274,2.0,3.0,88,0.00,,,0.00,weatherlink.com 1.10,2013-02-11 17:54:00,
2013-02-11 10:09:00,42.4,39.0,30.36,WSW,257,2.0,5.0,88,0.00,,,0.00,weatherlink.com 1.10,2013-02-11 18:09:00,
2013-02-11 10:24:00,42.6,39.0,30.37,WSW,239,1.0,6.0,87,0.00,,,0.00,weatherlink.com 1.10,2013-02-11 18:24:00,
2013-02-11 10:39:00,42.8,39.0,30.37,West,260,5.0,5.0,87,0.00,,,0.00,weatherlink.com 1.10,2013-02-11 18:39:00,
2013-02-11 10:54:00,42.9,39.0,30.37,WSW,251,3.0,5.0,87,0.00,,,0.00,weatherlink.com 1.10,2013-02-11 18:54:00,
2013-02-11 11:09:00,43.1,40.0,30.37,WSW,253,2.0,4.0,88,0.00,,,0.00,weatherlink.com 1.10,2013-02-11 19:09:00,
2013-02-11 11:24:00,43.3,40.0,30.38,SW,224,0.0,2.0,87,0.00,,,0.00,weatherlink.com 1.10,2013-02-11 19:24:00,
2013-02-11 11:39:00,43.1,40.0,30.37,SSW,198,1.0,1.0,87,0.00,,,0.00,weatherlink.com 1.10,2013-02-11 19:39:00,
2013-02-11 11:54:00,43.1,40.0,30.37,SSW,211,0.0,2.0,88,0.00,,,0.00,weatherlink.com 1.10,2013-02-11 19:54:00,
2013-02-11 12:09:00,43.2,40.0,30.37,SSW,212,0.0,2.0,87,0.00,,,0.00,weatherlink.com 1.10,2013-02-11 20:09:00,
2013-02-11 12:24:00,43.4,40.0,30.37,SW,227,1.0,2.0,87,0.00,,,0.00,weatherlink.com 1.10,2013-02-11 20:24:00,
2013-02-11 12:39:00,43.2,40.0,30.36,South,181,0.0,2.0,88,0.00,,,0.00,weatherlink.com 1.10,2013-02-11 20:39:00,
2013-02-11 12:54:00,42.5,40.0,30.36,ESE,107,0.0,6.0,90,0.00,,,0.00,weatherlink.com 1.10,2013-02-11 20:54:00,
2013-02-11 13:09:00,42.0,40.0,30.36,SW,215,2.0,4.0,93,0.00,,,0.00,weatherlink.com 1.10,2013-02-11 21:09:00,
2013-02-11 13:24:00,41.8,40.0,30.36,ESE,118,0.0,5.0,94,0.00,,,0.00,weatherlink.com 1.10,2013-02-11 21:24:00,
2013-02-11 13:39:00,41.5,40.0,30.36,SE,139,3.0,5.0,95,0.00,,,0.00,weatherlink.com 1.10,2013-02-11 21:39:00,
2013-02-11 13:54:00,41.5,41.0,30.36,SSE,164,0.0,2.0,96,0.00,,,0.00,weatherlink.com 1.10,2013-02-11 21:54:00,
2013-02-11 14:09:00,41.4,40.0,30.36,SE,137,0.0,3.0,96,0.00,,,0.00,weatherlink.com 1.10,2013-02-11 22:09:00,
2013-02-11 14:25:00,41.2,40.0,30.36,SSW,197,4.0,7.0,96,0.01,,,0.01,weatherlink.com 1.10,2013-02-11 22:25:00,
2013-02-11 14:39:00,41.4,41.0,30.36,SE,143,0.0,6.0,97,0.01,,,0.01,weatherlink.com 1.10,2013-02-11 22:39:00,
2013-02-11 14:54:00,41.7,41.0,30.36,ESE,110,3.0,4.0,97,0.01,,,0.01,weatherlink.com 1.10,2013-02-11 22:54:00,
2013-02-11 15:10:00,41.8,41.0,30.36,SE,136,2.0,5.0,97,0.01,,,0.01,weatherlink.com 1.10,2013-02-11 23:10:00,
2013-02-11 15:24:00,41.7,41.0,30.36,SSW,192,3.0,5.0,97,0.00,,,0.01,weatherlink.com 1.10,2013-02-11 23:24:00,
2013-02-11 15:39:00,41.7,41.0,30.35,ESE,107,0.0,4.0,97,0.00,,,0.01,weatherlink.com 1.10,2013-02-11 23:39:00,
2013-02-11 15:55:00,41.6,41.0,30.36,SE,136,2.0,3.0,97,0.00,,,0.01,weatherlink.com 1.10,2013-02-11 23:55:00,
2013-02-11 16:09:00,41.6,41.0,30.36,ESE,114,0.0,5.0,97,0.00,,,0.01,weatherlink.com 1.10,2013-02-12 00:09:00,
2013-02-11 16:25:00,41.7,41.0,30.36,ESE,107,0.0,3.0,97,0.01,,,0.02,weatherlink.com 1.10,2013-02-12 00:25:00,
2013-02-11 16:39:00,41.7,41.0,30.36,SE,139,0.0,4.0,97,0.01,,,0.02,weatherlink.com 1.10,2013-02-12 00:39:00,
2013-02-11 16:54:00,41.7,41.0,30.36,SSE,160,1.0,2.0,97,0.01,,,0.02,weatherlink.com 1.10,2013-02-12 00:54:00,
2013-02-11 17:09:00,41.6,41.0,30.36,ESE,115,1.0,2.0,97,0.02,,,0.03,weatherlink.com 1.10,2013-02-12 01:09:00,
2013-02-11 17:24:00,41.5,41.0,30.36,SE,139,0.0,2.0,97,0.01,,,0.03,weatherlink.com 1.10,2013-02-12 01:24:00,
2013-02-11 17:39:00,41.4,41.0,30.36,SE,131,0.0,1.0,98,0.01,,,0.03,weatherlink.com 1.10,2013-02-12 01:39:00,
2013-02-11 17:54:00,41.4,41.0,30.36,SSE,167,1.0,2.0,98,0.02,,,0.04,weatherlink.com 1.10,2013-02-12 01:54:00,
2013-02-11 18:09:00,41.3,41.0,30.36,SE,138,0.0,2.0,98,0.01,,,0.04,weatherlink.com 1.10,2013-02-12 02:09:00,
2013-02-11 18:24:00,41.3,41.0,30.36,SE,142,1.0,2.0,98,0.02,,,0.05,weatherlink.com 1.10,2013-02-12 02:24:00,
2013-02-11 18:39:00,41.2,41.0,30.36,SE,124,0.0,2.0,98,0.02,,,0.05,weatherlink.com 1.10,2013-02-12 02:39:00,
2013-02-11 18:54:00,41.2,41.0,30.36,ESE,119,0.0,3.0,98,0.01,,,0.05,weatherlink.com 1.10,2013-02-12 02:54:00,
2013-02-11 19:09:00,41.2,41.0,30.37,SE,141,0.0,2.0,98,0.02,,,0.06,weatherlink.com 1.10,2013-02-12 03:09:00,
2013-02-11 19:24:00,41.2,41.0,30.36,SE,127,0.0,1.0,98,0.01,,,0.06,weatherlink.com 1.10,2013-02-12 03:24:00,
2013-02-11 19:39:00,41.2,41.0,30.36,ESE,121,0.0,2.0,98,0.01,,,0.06,weatherlink.com 1.10,2013-02-12 03:39:00,
2013-02-11 19:54:00,41.2,41.0,30.37,ESE,115,0.0,1.0,98,0.01,,,0.06,weatherlink.com 1.10,2013-02-12 03:54:00,
2013-02-11 20:09:00,41.1,41.0,30.36,ESE,118,0.0,1.0,98,0.01,,,0.07,weatherlink.com 1.10,2013-02-12 04:09:00,
2013-02-11 20:24:00,41.1,41.0,30.36,ESE,120,0.0,0.0,98,0.01,,,0.07,weatherlink.com 1.10,2013-02-12 04:24:00,
2013-02-11 20:39:00,41.1,41.0,30.36,SE,126,0.0,1.0,98,0.01,,,0.07,weatherlink.com 1.10,2013-02-12 04:39:00,
2013-02-11 20:54:00,41.1,41.0,30.36,SE,141,0.0,1.0,98,0.01,,,0.07,weatherlink.com 1.10,2013-02-12 04:54:00,
2013-02-11 21:09:00,41.2,41.0,30.36,ESE,117,0.0,1.0,98,0.00,,,0.07,weatherlink.com 1.10,2013-02-12 05:09:00,
2013-02-11 21:24:00,41.2,41.0,30.36,ESE,117,0.0,1.0,98,0.00,,,0.07,weatherlink.com 1.10,2013-02-12 05:24:00,
2013-02-11 21:39:00,41.2,41.0,30.36,ESE,117,0.0,0.0,98,0.00,,,0.07,weatherlink.com 1.10,2013-02-12 05:39:00,
2013-02-11 21:54:00,41.2,41.0,30.36,ESE,117,0.0,0.0,98,0.00,,,0.07,weatherlink.com 1.10,2013-02-12 05:54:00,
2013-02-11 22:09:00,41.2,41.0,30.36,ESE,117,0.0,0.0,98,0.00,,,0.07,weatherlink.com 1.10,2013-02-12 06:09:00,
2013-02-11 22:25:00,41.2,41.0,30.36,ESE,117,0.0,0.0,98,0.00,,,0.07,weatherlink.com 1.10,2013-02-12 06:25:00,
2013-02-11 22:40:00,41.3,41.0,30.36,ESE,117,0.0,0.0,98,0.00,,,0.07,weatherlink.com 1.10,2013-02-12 06:40:00,
2013-02-11 22:55:00,41.3,41.0,30.37,ESE,117,0.0,0.0,98,0.00,,,0.07,weatherlink.com 1.10,2013-02-12 06:55:00,
2013-02-11 23:10:00,41.3,41.0,30.37,SE,127,0.0,1.0,98,0.01,,,0.08,weatherlink.com 1.10,2013-02-12 07:10:00,
2013-02-11 23:25:00,41.3,41.0,30.37,SW,219,0.0,1.0,98,0.01,,,0.08,weatherlink.com 1.10,2013-02-12 07:25:00,
2013-02-11 23:40:00,41.3,41.0,30.38,SW,219,0.0,0.0,98,0.01,,,0.08,weatherlink.com 1.10,2013-02-12 07:40:00,
2013-02-11 23:55:00,41.3,41.0,30.38,SW,220,0.0,0.0,98,0.01,,,0.08,weatherlink.com 1.10,2013-02-12 07:55:00,